Hourly Weather Dzhuryntsi

Today, 6 May, Thursday

Time Temperature Precipitation Wind Pressure Humidity
00:00 +9°C° 0 mm 7 mps 733 mmHg 76%
01:00 +8°C° 0 mm 7 mps 733 mmHg 77%
02:00 +8°C° 0 mm 7 mps 732 mmHg 78%
03:00 +8°C° 0 mm 7 mps 732 mmHg 76%
04:00 +8°C° 0 mm 7 mps 732 mmHg 75%
05:00 +8°C° 0 mm 7 mps 732 mmHg 74%
06:00 +9°C° 0.1 mm 7 mps 732 mmHg 74%
07:00 +10°C° 0.1 mm 7 mps 733 mmHg 75%
08:00 +10°C° 0.1 mm 6 mps 733 mmHg 75%
09:00 +9°C° 0 mm 6 mps 734 mmHg 77%
10:00 +8°C° 0 mm 6 mps 735 mmHg 79%
11:00 +7°C° 0 mm 5 mps 736 mmHg 81%
12:00 +9°C° 0 mm 5 mps 736 mmHg 71%
13:00 +12°C° 0 mm 5 mps 737 mmHg 62%
14:00 +14°C° 0 mm 5 mps 737 mmHg 52%
15:00 +14°C° 0 mm 5 mps 737 mmHg 52%
16:00 +14°C° 0 mm 4 mps 737 mmHg 52%
17:00 +14°C° 0 mm 3 mps 737 mmHg 52%
18:00 +13°C° 0 mm 2 mps 737 mmHg 54%
19:00 +12°C° 0 mm 1 mps 738 mmHg 57%
20:00 +10°C° 0 mm 1 mps 738 mmHg 59%
21:00 +10°C° 0 mm 1 mps 738 mmHg 60%
22:00 +8°C° 0 mm 2 mps 738 mmHg 62%
23:00 +8°C° 0 mm 3 mps 738 mmHg 63%

Tomorrow, 7 May, Friday

Time Temperature Precipitation Wind Pressure Humidity
00:00 +7°C° 0 mm 3 mps 738 mmHg 67%
01:00 +7°C° 0 mm 3 mps 738 mmHg 72%
02:00 +7°C° 0 mm 3 mps 738 mmHg 76%
03:00 +6°C° 0 mm 4 mps 737 mmHg 77%
04:00 +7°C° 0 mm 5 mps 737 mmHg 77%
05:00 +7°C° 0 mm 6 mps 737 mmHg 77%
06:00 +8°C° 0 mm 6 mps 737 mmHg 79%
07:00 +9°C° 0 mm 6 mps 737 mmHg 80%
08:00 +11°C° 0 mm 6 mps 736 mmHg 82%
09:00 +14°C° 0.1 mm 6 mps 736 mmHg 76%
10:00 +16°C° 0.1 mm 6 mps 736 mmHg 69%
11:00 +19°C° 0.1 mm 6 mps 736 mmHg 63%
12:00 +19°C° 0.1 mm 6 mps 736 mmHg 60%
13:00 +20°C° 0.1 mm 6 mps 735 mmHg 57%
14:00 +21°C° 0.1 mm 6 mps 735 mmHg 54%
15:00 +19°C° 0.4 mm 4 mps 735 mmHg 62%
16:00 +18°C° 0.4 mm 3 mps 735 mmHg 70%
17:00 +16°C° 0.4 mm 2 mps 734 mmHg 79%
18:00 +16°C° 0.1 mm 3 mps 735 mmHg 80%
19:00 +14°C° 0.1 mm 3 mps 735 mmHg 82%
20:00 +13°C° 0.1 mm 3 mps 736 mmHg 84%
21:00 +13°C° 0 mm 3 mps 736 mmHg 85%
22:00 +12°C° 0 mm 3 mps 737 mmHg 87%
23:00 +11°C° 0 mm 3 mps 737 mmHg 88%

Day after tomorrow, 8 May, Saturday

Time Temperature Precipitation Wind Pressure Humidity
00:00 +11°C° 0 mm 3 mps 738 mmHg 88%
01:00 +10°C° 0 mm 3 mps 738 mmHg 89%
02:00 +10°C° 0 mm 4 mps 739 mmHg 89%
03:00 +9°C° 0 mm 3 mps 739 mmHg 90%
04:00 +9°C° 0 mm 2 mps 739 mmHg 90%
05:00 +8°C° 0 mm 2 mps 740 mmHg 91%
06:00 +9°C° 0 mm 2 mps 740 mmHg 84%
07:00 +11°C° 0 mm 1 mps 741 mmHg 78%
08:00 +13°C° 0 mm 1 mps 741 mmHg 71%
09:00 +14°C° 0 mm 1 mps 741 mmHg 66%
10:00 +16°C° 0 mm 1 mps 741 mmHg 60%
11:00 +18°C° 0 mm 1 mps 741 mmHg 55%
12:00 +18°C° 0 mm 2 mps 741 mmHg 54%
13:00 +19°C° 0 mm 2 mps 741 mmHg 53%
14:00 +19°C° 0 mm 3 mps 740 mmHg 52%
15:00 +19°C° 0 mm 3 mps 740 mmHg 56%
16:00 +19°C° 0 mm 3 mps 740 mmHg 60%
17:00 +19°C° 0 mm 4 mps 739 mmHg 64%
18:00 +18°C° 0 mm 3 mps 739 mmHg 71%
19:00 +16°C° 0 mm 3 mps 739 mmHg 77%
20:00 +14°C° 0 mm 3 mps 739 mmHg 84%
21:00 +14°C° 0 mm 4 mps 739 mmHg 84%
22:00 +13°C° 0 mm 4 mps 739 mmHg 84%
23:00 +13°C° 0 mm 4 mps 739 mmHg 84%

9 May, Sunday

Time Temperature Precipitation Wind Pressure Humidity
00:00 +13°C° 0 mm 4 mps 739 mmHg 86%
01:00 +13°C° 0 mm 4 mps 738 mmHg 87%
02:00 +13°C° 0 mm 5 mps 738 mmHg 89%

10 May, Monday

Time Temperature Precipitation Wind Pressure Humidity

11 May, Tuesday

Time Temperature Precipitation Wind Pressure Humidity
Show more